Central Sonoma County Latest

22 Stations

15 Minute Data | America/Los_Angeles
as of 5/20/19 6:38 PM PDT
Station Date Time Temp (°F) RH (%) Dew Pt (°F) Wind Spd (mph) Wind Dir (°) Wind Gust (mph) Latest Rain (In) Daily Rain (In) Daily Min Temp (°F) Daily Max Temp (°F)
Healdsburg - S (Sodini) 5/20/19 1830 60.6   1.6 58   10 45.7   2.7 5.5 SW | 229 11.5   6.0 0.00 0.00 43.7   4.0 68.4   7.8
Ranch 8 (Windsor-NW) 5/20/19 1830 61.2   2.3 61   16 47.7   4.2 6.8 WSW | 242 13.9   7.8 0.00 0.01 45.6   2.2 67.8   6.8
Foothill Ranch 16 5/20/19 1830 59.4   1.4 62   3 46.4   0.0 5.7 WSW | 237 10.9   5.0 0.00 0.00 40.7   7.1 67.4   9.0
Airport Ranch 14 5/20/19 1830 58.9   2.0 60   12 45.1   3.0 3.2 SW | 229 8.7   4.8 0.00 0.00 43.5   4.0 67.0   7.3
Silk Road 5/20/19 1830 58.9   0.7 64   4 46.8   2.2 6.3 SW | 227 11.4   5.9 0.00 0.00 44.2   2.7 66.8   6.5
Oak Meadows Ranch 5 5/20/19 1830 59.4   0.9 64   7 47.2   2.1 7.5 SSW | 207 12.4   7.4 0.00 0.01 43.2   4.3 67.0   7.4
Laughlin Rd (Windsor-South) 5/20/19 1830 60.7   3.2 58   17 45.9   3.7 - - - 0.00 0.00 44.7   1.6 66.4   7.7
Barnes Rd (SE Fulton) 5/20/19 1830 58.4   2.6 64   12 46.2   1.9 5.9 WSW | 251 11.0   4.3 0.00 0.00 41.9   5.6 65.3   8.1
Crinella Ranch 21 5/20/19 1830 58.9   3.0 63   13 46.2   2.3 5.0 WSW | 256 12.1   7.0 0.00 0.00 43.8   2.6 66.1   8.5
Denner Ranch Base 5/20/19 1830 58.9   3.8 62   16 46.0   2.3 8.6 SW | 230 13.8   9.6 0.00 0.00 44.4   1.0 66.3   7.0
Guerneville Road (Santa Rosa Plains) 5/20/19 1830 58.1   2.2 67   10 47.4   1.4 8.6 W | 272 13.9   8.8 0.00 0.01 44.5   2.1 64.7   7.1
Rich Ranch (Guerneville Rd) 5/20/19 1830 59.2   2.2 64   13 47.1   2.8 - - - - - 43.7   2.9 66.6   7.1
Occidental Rd (Sebastopol) 5/20/19 1830 59.0   2.3 62   13 46.0   2.8 5.4 WSW | 240 13.8   8.1 0.00 0.00 44.6   0.1 65.4   6.8
Garrison Ranch 12 5/20/19 1830 59.6   2.9 63   13 47.0   2.4 4.4 WSW | 250 8.7   5.3 0.00 0.00 43.3   4.0 67.3   6.9
Laughlin Rd (Guerneville) 5/20/19 1830 58.3   0.5 65   4 46.6   2.1 5.1 S | 174 10.5   5.9 0.00 0.01 43.6   4.8 65.3   5.9
Korbel Winery 5/20/19 1830 58.4   0.8 63   12 46.1   3.7 3.4 W | 260 15.6   12.4 0.00 0.00 45.0   3.7 65.5   6.0
Shone Farms (Forestville) 5/20/19 1830 59.5   4.4 64   18 47.2   2.5 4.3 SW | 218 11.5   8.1 0.00 0.01 42.9   2.2 66.6   7.3
Ranch 30 (Forestville-NE) 5/17/19 1015 59.4   6.1 65   25 47.7   2.8 4.4 WNW | 291 10.6   3.7 0.00 0.00 49.0   1.5 61.2   7.5
Dutton Ranch (Graton-West) 5/20/19 1830 58.5   2.5 67   19 47.7   4.1 3.4 WSW | 238 9.0   2.7 0.00 0.00 42.5   3.2 66.2   7.5
Mill Station Rd (Graton-South) 5/20/19 1830 57.8   0.7 66   8 46.7   2.4 5.7 W | 264 11.3   4.8 0.00 0.01 42.3   4.3 63.7   6.0
Burnside Road (Sebastopol Hills) 5/20/19 1830 55.4   1.1 76   4 47.9   0.4 5.9 W | 274 12.0   5.2 0.00 0.00 42.8   3.2 61.9   5.6
Hirsch Vineyards 5/20/19 1830 50.8   0.7 90   2 48.1   1.1 2.3 WSW | 257 4.8   0.9 0.00 0.00 44.7   2.3 56.7   4.1
Max     61.2 90 48.1 8.6 - 15.6 0.00 0.01 45.6 68.4
Avg     58.6 65 46.7 5.4 - 11.4 0.00 - - -
Min     50.8 58 45.1 2.3 - 4.8 0.00 0.00 40.7 56.7